Location: Litvinovka
(48.6667°N, 34.3500°E)
Time: 11:16:40
(UTC+00:00)

Meteor 1-21 - Pass Details

Date: 18 September 2020
Orbit: 845 x 887 km, 81.2° (Epoch: 25 October)

Event Time Altitude Azimuth Distance (km) Brightness Sun altitude
Rises 16:30:17 0° 348° (NNW) 3,433 7.7 -7.7°
Reaches altitude 10° 16:32:43 10° 349° (N) 2,489 7.0 -8.1°
Maximum altitude 16:38:23 83° 77° (ENE) 860 4.2 -9.0°
Drops below altitude 10° 16:43:58 10° 167° (SSE) 2,461 6.4 -9.9°
Sets 16:46:22 0° 168° (SSE) 3,393 7.1 -10.3°
